sat.trackr.live / text

‹ back to catalog

STARLINK-6159

NORAD 56381 · 2023-061H

PAYLOAD ACTIVE UNKNOWN

§ Identity

Operator
Country
US
Launch date
2023-05-04
Launch site
AFETR
Launch vehicle
Mass (kg)
RCS (m²)

Purposes: comms

External: N2YO · Heavens-Above · Gunter

§ Orbital elements

Epoch: 2026-09-20T03:11:04.568928Z

Period
94.27 min
Inclination
43.0005°
Eccentricity
0.0000844
Mean motion
15.27576100 rev/d
Perigee alt
482.5 km
Apogee alt
483.6 km
Semi-major
6,861.2 km
B*
7.3351e-6
RAAN
180.0884°
Arg perigee
241.2297°
Mean anomaly
118.8470°
Rev number
18,648

§ Raw data

STARLINK-61591 56381U 23061H   26263.13269177 -.00000060  00000+0  73351-5 0  99902 56381  43.0005 180.0884 0000844 241.2297 118.8470 15.27576100186489

JSON: /api/v1/satellites/56381 · /tle

For live sub-satellite position, see the globe view (requires WebGL).

§ Visibility from observer

Set your observer location to see the next 7 days of passes ≥ 10°. The values pass through the URL so the page stays shareable.

No JS? Fill the form by hand. The geolocation button needs JavaScript.